Regional Weather Roundup
Issued by NWS

Home | Current Version | Previous Version | Graphics & Text | Print | Product List | Glossary On
Versions: 1 2 3 4 5 6 7 8 9 10 11 12 13 14 15 16 17 18 19 20 21 22 23 24 25 26 27 28 29 30 31 32 33 34 35 36 37 38 39 40 41 42 43 44 45 46 47 48 49 50
000
ASUS45 KCYS 251610
RWRWY

WYOMING REGIONAL WEATHER ROUNDUP
NATIONAL WEATHER SERVICE CHEYENNE WY
1000 AM MDT SAT APR 25 2015

NOTE:  "FAIR" INDICATES FEW OR NO CLOUDS BELOW 12,000 FEET
WITH NO SIGNIFICANT WEATHER AND/OR OBSTRUCTIONS TO VISIBILITY.

WYZ001-251700-
YELLOWSTONE NATIONAL PARK

CITY           SKY/WX    TMP DP  RH WIND       PRES   REMARKS
LK YELLOWSTONE   N/A     30  25  81 VRB3      29.81R
W YELLOWSTONE  NOT AVBL

$$
WYZ002>013-054>058-071-098>099-251700-
NORTHERN WYOMING

CITY           SKY/WX    TMP DP  RH WIND       PRES   REMARKS
JACKSON        MOSUNNY   39  30  70 S16       29.79F WCI  30
CODY           CLOUDY    37  36  93 N16       29.75R WCI  28
GREYBULL       LGT RAIN  41  39  93 N15       29.74R
WORLAND        CLOUDY    42  37  82 NW14      29.74R
SHERIDAN       CLOUDY    42  36  79 NW22      29.72R
BUFFALO        CLOUDY    44  39  82 N22G36    29.69S
GILLETTE       FAIR      54  41  61 W10       29.66R
HULETT         CLOUDY    59  39  47 SW12      29.67S
NEWCASTLE      FAIR      54  41  62 S9        29.70S

$$
WYZ014>020-022>026-101>103-251700-
CENTRAL WYOMING

CITY           SKY/WX    TMP DP  RH WIND       PRES   REMARKS
BIG PINEY      CLOUDY    40  30  67 VRB5      29.81S
PINEDALE       FAIR      39  30  70 NW10      29.81S WCI  32
DUBOIS         CLOUDY    37  27  65 NW12G21   29.74S WCI  30
LANDER         FAIR      52  37  56 E5        29.68S
RIVERTON       FAIR      52  35  52 N9        29.69S
CASPER         FAIR      54  35  48 SW28G36   29.67F
DOUGLAS        FAIR      59  38  45 VRB7      29.69F

$$
WYZ021-027>030-104>119-251700-
SOUTHERN WYOMING

CITY           SKY/WX    TMP DP  RH WIND       PRES   REMARKS
EVANSTON       FAIR      39  31  72 S12       29.83S WCI  32
KEMMERER       PTSUNNY   36  32  87 W15       29.83S WCI  26
FORT BRIDGER   SUNNY     41  28  60 W12       29.86S
ROCK SPRINGS   FAIR      40  30  67 W20       29.82S WCI  30
DIXON          RAIN      37  35  90 SE7       29.89S WCI  32
RAWLINS        FAIR      43  32  65 SW16      29.81R
SARATOGA       CLOUDY    45  32  61 W16G23    29.84R
LARAMIE        PTSUNNY   45  31  58 W9        29.80R
CHEYENNE       PTSUNNY   57  32  38 SW8       29.75S
TORRINGTON     FAIR      56  44  64 S8        29.71R
PINE BLUFFS    FAIR      61  32  33 NW10      29.73F

$$



USA.gov is the U.S. government's official web portal to all federal, state and local government web resources and services.